NOAA 16 DEB, 42348

Orbit data source: Space-Track

NOAA 16 DEB, 42348 is space debris in SSO originally from a launch on Thu, 21 Sep 2000 UTC launched from the Air Force Western Test Range (AFWTR). Debris objects in space refer to the collection of defunct objects orbiting the Earth. Examples of debris include non-operational satellites, rocket bodies, and fragments generated from explosions, collisions, or faulty payload assembly.

Loading next visibility...
Identifier
42348, 2000-055QQ
Orbit
SSO
Country
Flag of USUS
Related business
Manufacturer
Unknown
Mission
Spacecraft
Bus & Motor
Unknown
Mass
Unknown
Launch date (UTC)
2000-09-21 (25 years ago)
Launch vehicle
Unknown
Launch site
Air Force Western Test Range (AFWTR)
Object type
Payload
Rocket body
Debris
Shape & HBR
Unknown shape, 0.1 m
Radar Cross Section
Small (<0.1 m²)

Expand to show TLE details & history
Last TLE update: 3 days ago

TLE from 3 days ago
0 NOAA 16 DEB
1 42348U 00055QQ  26034.22913484  .00004092  00000-0  20863-2 0  9995
2 42348  98.8045  28.0238 0056534 306.0189  53.5753 14.15431074510329
Epoch: 2026-02-03T05:29Z
TLE epoch observation values (Epoch: 2026-02-03T05:29:57.250Z)
Latitude
0.00005°
Longitude
172.12218°
Altitude
819.664 km
Speed
7.456 km/s
True Right ascension
01h 52m 05s
True Declination
0° 00' 00"
Sunlit
Object was in daylight at epoch
Visualization orbit readout
Latitude
Unknown
Longitude
Unknown
Altitude
Unknown
Speed
Unknown
Apparent Right ascension
Unknown
Apparent Declination
Unknown
Sunlit
N/A
Visualization observer readout
Local Sidereal Time
19:15:45
Azimuth
Unknown
Elevation
Unknown
Doppler factor
Unknown
Orbital elements
Apogee altitude
878.811 km
Perigee altitude
797.219 km
Semi-major axis
7,216.152 km
Eccentricity
0.00565
Inclination
98.8045°
RAAN
28.0238°
Arg. of periapsis
306.0189°
True anomaly
54.09876°
Mean anomaly
53.5753°
Eccentric anomaly
53.83681°
Mean motion
3.54066 °/min
Orbital period
101.68 mins
BSTAR
0.0020863
Loading maneuver chart data...
Computing Atmospheric mass density...
Loading historical data...
Loading historical data...
Loading historical data...
Loading historical data...
Loading historical data...
Loading historical data...
Loading historical data...

Documentation

Showing up to 5 results
|